Regional Weather Roundup
Issued by NWS

Home | Current Version | Previous Version | Graphics & Text | Print | Product List | Glossary On
Versions: 1 2 3 4 5 6 7 8 9 10 11 12 13 14 15 16 17 18 19 20 21 22 23 24 25 26 27 28 29 30 31 32 33 34 35 36 37 38 39 40 41 42 43 44 45 46 47 48 49 50
000
ASUS45 KCYS 140610
RWRWY

WYOMING REGIONAL WEATHER ROUNDUP
NATIONAL WEATHER SERVICE CHEYENNE WY
1200 AM MDT SUN SEP 14 2014

NOTE:  "FAIR" INDICATES FEW OR NO CLOUDS BELOW 12,000 FEET
WITH NO SIGNIFICANT WEATHER AND/OR OBSTRUCTIONS TO VISIBILITY.

WYZ001-140700-
YELLOWSTONE NATIONAL PARK

CITY           SKY/WX    TMP DP  RH WIND       PRES   REMARKS
LK YELLOWSTONE   N/A     32  27  81 NW3       30.19S
6HR MIN TEMP:  32; 6HR MAX TEMP:  59;

W YELLOWSTONE  NOT AVBL

$$
WYZ002>013-054>058-071-098>099-140700-
NORTHERN WYOMING

CITY           SKY/WX    TMP DP  RH WIND       PRES   REMARKS
JACKSON        CLEAR     39  27  60 N3        30.12R
CODY           CLEAR     39  36  87 S5        30.13S
GREYBULL       CLEAR     45  38  76 S3        30.11R
6HR MIN TEMP:  45; 6HR MAX TEMP:  64;

WORLAND        CLEAR     42  37  82 CALM      30.11S
6HR MIN TEMP:  42; 6HR MAX TEMP:  63;

SHERIDAN       CLEAR     37  34  89 N3        30.16S
6HR MIN TEMP:  36; 6HR MAX TEMP:  57;

BUFFALO        CLEAR     42  33  70 S5        30.18F
6HR MIN TEMP:  40; 6HR MAX TEMP:  54;

GILLETTE       PTCLDY    34  32  92 S3        30.17F
6HR MIN TEMP:  34; 6HR MAX TEMP:  57;

HULETT         FAIR      39  34  81 MISG      30.20
NEWCASTLE      FAIR      43  34  70 CALM      30.19

$$
WYZ014>020-022>026-101>103-140700-
CENTRAL WYOMING

CITY           SKY/WX    TMP DP  RH WIND       PRES   REMARKS
BIG PINEY      CLEAR     47  25  42 N3        30.17R
6HR MIN TEMP:  45; 6HR MAX TEMP:  72;

PINEDALE       CLEAR     36  28  75 W5        30.18S WCI  32
DUBOIS         FAIR      41  27  56 CALM      30.20S
LANDER         CLEAR     45  32  60 W8        30.14R
6HR MIN TEMP:  45; 6HR MAX TEMP:  68;

RIVERTON       CLEAR     47  30  51 NE15      30.13R
6HR MIN TEMP:  47; 6HR MAX TEMP:  67;

CASPER         CLEAR     38  30  73 N8        30.15F WCI  32
6HR MIN TEMP:  38; 6HR MAX TEMP:  65;

DOUGLAS        CLEAR     45  34  65 S5        30.16F
6HR MIN TEMP:  45; 6HR MAX TEMP:  62;


$$
WYZ021-027>030-104>119-140700-
SOUTHERN WYOMING

CITY           SKY/WX    TMP DP  RH WIND       PRES   REMARKS
EVANSTON       PTCLDY    56  29  35 S7        30.19S
6HR MIN TEMP:  55; 6HR MAX TEMP:  72;

KEMMERER       PTCLDY    50  28  43 CALM      30.20S
FORT BRIDGER   FAIR      58  27  30 SW10      30.20S
ROCK SPRINGS   PTCLDY    56  22  26 SW10      30.16F
6HR MIN TEMP:  55; 6HR MAX TEMP:  74;

DIXON          FAIR      44  36  73 SE6       30.21R
RAWLINS        PTCLDY    53  26  35 SW12      30.16R
6HR MIN TEMP:  53; 6HR MAX TEMP:  72;

SARATOGA       FAIR      50  32  50 N3        30.19R
LARAMIE        PTCLDY    49  36  61 S17       30.19F
6HR MIN TEMP:  49; 6HR MAX TEMP:  68;

CHEYENNE       CLEAR     45  35  68 SW10      30.19F
6HR MIN TEMP:  42; 6HR MAX TEMP:  64;

TORRINGTON     CLEAR     45  37  73 NE3       30.14S
6HR MIN TEMP:  44; 6HR MAX TEMP:  67;

PINE BLUFFS    FAIR      37  34  87 CALM      30.16S

$$



USA.gov is the U.S. government's official web portal to all federal, state and local government web resources and services.